When you browse on this site, cookies collect data to enhance your experience and personalize the content and advertising you see.
Visit our Privacy Policy to learn more. By continuing to use the site, you agree to this use of cookies and data.
  • In Portugal
  • List of Countries
  • For 7 days
  • Water Temperature
  • Weather Map
  • Weather Widgets
  • user-avatar
    Login

    Hourly Weather Spirkovo

    Today, 3 June, Wednesday

    Time Temperature Precipitation Wind Pressure Humidity
    00:00 +7°C° 0 mm 3 mps 746 mmHg 92%
    01:00 +8°C° 0 mm 3 mps 746 mmHg 91%
    02:00 +8°C° 0 mm 3 mps 746 mmHg 91%
    03:00 +8°C° 0.1 mm 3 mps 746 mmHg 92%
    04:00 +9°C° 0.1 mm 3 mps 745 mmHg 93%
    05:00 +9°C° 0.1 mm 3 mps 745 mmHg 93%
    06:00 +9°C° 1.2 mm 3 mps 745 mmHg 94%
    07:00 +9°C° 1.2 mm 3 mps 745 mmHg 95%
    08:00 +10°C° 1.2 mm 3 mps 745 mmHg 97%
    09:00 +10°C° 1.4 mm 3 mps 745 mmHg 97%
    10:00 +10°C° 1.4 mm 3 mps 745 mmHg 97%
    11:00 +11°C° 1.4 mm 3 mps 745 mmHg 97%
    12:00 +11°C° 0.4 mm 4 mps 744 mmHg 96%
    13:00 +12°C° 0.4 mm 4 mps 744 mmHg 96%
    14:00 +12°C° 0.4 mm 4 mps 744 mmHg 96%
    15:00 +12°C° 0.3 mm 4 mps 744 mmHg 96%
    16:00 +13°C° 0.3 mm 4 mps 743 mmHg 96%
    17:00 +13°C° 0.3 mm 4 mps 743 mmHg 96%
    18:00 +13°C° 0.3 mm 4 mps 743 mmHg 96%
    19:00 +13°C° 0.3 mm 4 mps 742 mmHg 96%
    20:00 +13°C° 0.3 mm 4 mps 742 mmHg 96%
    21:00 +13°C° 0.3 mm 4 mps 742 mmHg 96%
    22:00 +13°C° 0.3 mm 4 mps 741 mmHg 96%
    23:00 +12°C° 0.3 mm 4 mps 740 mmHg 96%

    Tomorrow, 4 June, Thursday

    Time Temperature Precipitation Wind Pressure Humidity
    00:00 +12°C° 2 mm 4 mps 739 mmHg 97%
    01:00 +12°C° 2 mm 4 mps 739 mmHg 97%
    02:00 +12°C° 2 mm 4 mps 738 mmHg 98%
    03:00 +12°C° 2.5 mm 3 mps 737 mmHg 98%
    04:00 +12°C° 2.5 mm 3 mps 736 mmHg 98%
    05:00 +13°C° 2.5 mm 2 mps 735 mmHg 98%
    06:00 +13°C° 1.1 mm 2 mps 735 mmHg 98%
    07:00 +13°C° 1.1 mm 2 mps 735 mmHg 98%
    08:00 +13°C° 1.1 mm 2 mps 735 mmHg 98%
    09:00 +13°C° 0.1 mm 3 mps 736 mmHg 94%
    10:00 +14°C° 0.1 mm 3 mps 736 mmHg 90%
    11:00 +15°C° 0.1 mm 4 mps 736 mmHg 86%
    12:00 +17°C° 0.5 mm 4 mps 737 mmHg 84%
    13:00 +18°C° 0.5 mm 4 mps 737 mmHg 82%
    14:00 +19°C° 0.5 mm 4 mps 738 mmHg 80%
    15:00 +19°C° 0.2 mm 3 mps 738 mmHg 78%
    16:00 +19°C° 0.2 mm 3 mps 738 mmHg 76%
    17:00 +19°C° 0.2 mm 2 mps 738 mmHg 74%
    18:00 +18°C° 0.5 mm 2 mps 739 mmHg 79%
    19:00 +16°C° 0.5 mm 2 mps 739 mmHg 85%
    20:00 +14°C° 0.5 mm 2 mps 739 mmHg 91%
    21:00 +13°C° 0 mm 2 mps 739 mmHg 92%
    22:00 +13°C° 0 mm 2 mps 739 mmHg 93%
    23:00 +12°C° 0 mm 2 mps 739 mmHg 94%

    Day after tomorrow, 5 June, Friday

    Time Temperature Precipitation Wind Pressure Humidity
    00:00 +10°C° 0 mm 2 mps 740 mmHg 95%
    01:00 +10°C° 0 mm 2 mps 740 mmHg 95%
    02:00 +9°C° 0 mm 2 mps 740 mmHg 96%
    03:00 +10°C° 0 mm 2 mps 740 mmHg 95%
    04:00 +10°C° 0 mm 2 mps 740 mmHg 95%
    05:00 +12°C° 0 mm 2 mps 740 mmHg 95%
    06:00 +12°C° 0 mm 3 mps 740 mmHg 90%
    07:00 +14°C° 0 mm 3 mps 741 mmHg 85%
    08:00 +17°C° 0 mm 3 mps 741 mmHg 80%
    09:00 +17°C° 0.9 mm 4 mps 741 mmHg 79%
    10:00 +18°C° 0.9 mm 4 mps 741 mmHg 78%
    11:00 +18°C° 0.9 mm 4 mps 741 mmHg 78%
    12:00 +18°C° 0.6 mm 4 mps 741 mmHg 76%
    13:00 +18°C° 0.6 mm 4 mps 741 mmHg 74%
    14:00 +19°C° 0.6 mm 4 mps 741 mmHg 72%
    15:00 +18°C° 0.5 mm 4 mps 741 mmHg 75%
    16:00 +18°C° 0.5 mm 3 mps 740 mmHg 78%
    17:00 +18°C° 0.5 mm 3 mps 740 mmHg 81%
    18:00 +16°C° 0.1 mm 3 mps 740 mmHg 85%
    19:00 +14°C° 0.1 mm 3 mps 741 mmHg 88%
    20:00 +13°C° 0.1 mm 3 mps 741 mmHg 91%
    21:00 +13°C° 0 mm 3 mps 741 mmHg 93%
    22:00 +13°C° 0 mm 2 mps 741 mmHg 95%
    23:00 +12°C° 0 mm 2 mps 741 mmHg 97%

    6 June, Saturday

    Time Temperature Precipitation Wind Pressure Humidity
    00:00 +12°C° 0 mm 2 mps 741 mmHg 97%
    01:00 +10°C° 0 mm 2 mps 742 mmHg 98%
    02:00 +10°C° 0 mm 2 mps 742 mmHg 98%
    03:00 +12°C° 0 mm 2 mps 742 mmHg 98%
    04:00 +12°C° 0 mm 2 mps 742 mmHg 97%
    05:00 +13°C° 0 mm 2 mps 742 mmHg 97%
    06:00 +13°C° 0 mm 3 mps 742 mmHg 96%
    07:00 +13°C° 0 mm 3 mps 742 mmHg 94%
    08:00 +14°C° 0 mm 3 mps 743 mmHg 93%
    09:00 +16°C° 0 mm 3 mps 743 mmHg 91%
    10:00 +16°C° 0 mm 3 mps 743 mmHg 89%
    11:00 +17°C° 0 mm 3 mps 743 mmHg 87%
    12:00 +18°C° 0.1 mm 3 mps 743 mmHg 84%
    13:00 +20°C° 0.1 mm 4 mps 743 mmHg 81%
    14:00 +21°C° 0.1 mm 4 mps 743 mmHg 79%
    15:00 +20°C° 0.7 mm 3 mps 743 mmHg 83%
    16:00 +20°C° 0.7 mm 3 mps 743 mmHg 87%
    17:00 +20°C° 0.7 mm 2 mps 743 mmHg 92%
    18:00 +19°C° 0.6 mm 2 mps 743 mmHg 92%
    19:00 +19°C° 0.6 mm 3 mps 743 mmHg 92%
    20:00 +19°C° 0.6 mm 3 mps 743 mmHg 93%
    21:00 +18°C° 0.3 mm 3 mps 743 mmHg 94%
    22:00 +18°C° 0.3 mm 3 mps 744 mmHg 95%
    23:00 +17°C° 0.3 mm 2 mps 744 mmHg 96%

    7 June, Sunday

    Time Temperature Precipitation Wind Pressure Humidity
    00:00 +16°C° 0 mm 2 mps 745 mmHg 97%
    01:00 +16°C° 0 mm 2 mps 745 mmHg 97%
    02:00 +15°C° 0 mm 2 mps 746 mmHg 97%
    03:00 +15°C° 0 mm 2 mps 746 mmHg 97%
    04:00 +15°C° 0 mm 2 mps 747 mmHg 96%
    05:00 +16°C° 0 mm 2 mps 748 mmHg 95%
    06:00 +17°C° 0 mm 2 mps 748 mmHg 89%
    07:00 +19°C° 0 mm 2 mps 749 mmHg 84%
    08:00 +20°C° 0 mm 2 mps 749 mmHg 78%
    09:00 +23°C° 0 mm 2 mps 750 mmHg 69%
    10:00 +24°C° 0 mm 2 mps 750 mmHg 60%
    11:00 +25°C° 0 mm 2 mps 750 mmHg 51%
    12:00 +26°C° 0 mm 2 mps 750 mmHg 49%
    13:00 +26°C° 0 mm 1 mps 750 mmHg 47%
    14:00 +27°C° 0 mm 1 mps 750 mmHg 45%
    15:00 +27°C° 0 mm 1 mps 750 mmHg 50%
    16:00 +26°C° 0 mm 1 mps 750 mmHg 55%
    17:00 +26°C° 0 mm 1 mps 750 mmHg 60%
    18:00 +24°C° 0 mm 1 mps 750 mmHg 67%
    19:00 +21°C° 0 mm 2 mps 750 mmHg 75%
    20:00 +19°C° 0 mm 2 mps 749 mmHg 82%
    21:00 +19°C° 0.1 mm 2 mps 750 mmHg 86%
    22:00 +18°C° 0.1 mm 2 mps 750 mmHg 90%
    23:00 +17°C° 0.1 mm 2 mps 750 mmHg 94%

    8 June, Monday

    Time Temperature Precipitation Wind Pressure Humidity
    00:00 +17°C° 0 mm 2 mps 750 mmHg 95%
    01:00 +17°C° 0 mm 2 mps 750 mmHg 96%
    02:00 +17°C° 0 mm 2 mps 749 mmHg 97%
    03:00 +17°C° 0 mm 2 mps 749 mmHg 96%
    04:00 +18°C° 0 mm 2 mps 749 mmHg 95%
    05:00 +18°C° 0 mm 2 mps 750 mmHg 94%
    06:00 +20°C° 0 mm 3 mps 750 mmHg 88%
    07:00 +21°C° 0 mm 3 mps 750 mmHg 81%
    08:00 +22°C° 0 mm 3 mps 750 mmHg 75%
    09:00 +24°C° 0.2 mm 3 mps 750 mmHg 74%
    10:00 +24°C° 0.2 mm 3 mps 750 mmHg 72%
    11:00 +24°C° 0.2 mm 3 mps 750 mmHg 71%
    12:00 +25°C° 0.3 mm 4 mps 749 mmHg 70%
    13:00 +25°C° 0.3 mm 4 mps 749 mmHg 69%
    14:00 +26°C° 0.3 mm 5 mps 749 mmHg 68%
    15:00 +26°C° 0.3 mm 4 mps 749 mmHg 69%
    16:00 +26°C° 0.3 mm 4 mps 749 mmHg 70%
    17:00 +26°C° 0.3 mm 3 mps 749 mmHg 71%
    18:00 +25°C° 0 mm 3 mps 749 mmHg 77%
    19:00 +22°C° 0 mm 3 mps 749 mmHg 82%
    20:00 +21°C° 0 mm 2 mps 749 mmHg 88%
    21:00 +20°C° 0 mm 2 mps 749 mmHg 91%
    22:00 +19°C° 0 mm 2 mps 750 mmHg 93%
    23:00 +19°C° 0 mm 2 mps 750 mmHg 95%
    Show more